Date String (YYYY-MM-DD hh:mm:ss) UTC,Instrument flags,absolute air pressure of the measurement (hPa),sample flow rate (lpm),inlet stack bypass flow (lpm),air temperature of the measurement (°C),ambient temperature measured by the external sensor (°C),aerosol sample conditioner tube jacket temperature (°C),OPC LED temperature (°C),internal box temperature (°C),relative humidity of the measurement (%),span deviation,mass concentration of particles derived from Lorenz-Mie calculation of OPC scattering (μg/m³),mass concentration of particles derived from Lorenz-Mie calculation of OPC scattering (μg/m³),mass concentration of particles derived from Lorenz-Mie calculation of OPC scattering (μg/m³)
DateTimeUTC,F1_M11,P_M11,Q1_M11,Q2_M11,T1_M11,T2_M11,T3_M11,T4_M11,T5_M11,U1_M11,ZSPAN_M11,X0_M11,X2_M11,X1_M11
2024-01-09 18:00:00,SystemResetWarning,0817.6,5.00,000.00,019.6,019.0,000.0,027.9,021.0,9.9,0000.0,0008.69,0003.95,0003.40
2024-01-09 18:01:00,SystemResetWarning,0817.6,5.01,000.00,019.6,019.0,000.0,027.9,021.0,9.9,0000.0,0009.15,0003.92,0003.39
2024-01-09 18:02:00,SystemResetWarning,0817.6,5.00,000.00,019.6,019.0,000.0,027.9,021.0,9.9,0000.0,0009.11,0003.92,0003.39
2024-01-09 18:03:00,SystemResetWarning,0817.6,5.00,000.00,019.7,019.0,000.0,027.9,021.0,9.9,0000.0,0009.47,0003.91,0003.39
2024-01-09 18:04:00,SystemResetWarning,0817.6,5.00,000.00,019.7,019.0,000.0,027.9,021.0,9.8,0000.0,0009.52,0003.88,0003.40
2024-01-09 18:05:00,SystemResetWarning,0817.6,5.00,000.00,019.7,019.0,000.0,027.9,021.0,9.8,0000.0,0009.52,0003.87,0003.40
2024-01-09 18:06:00,SystemResetWarning,0817.6,5.00,000.00,019.7,019.0,000.0,027.9,021.0,9.7,0000.0,0008.85,0003.86,0003.40
2024-01-09 18:07:00,SystemResetWarning,0817.5,5.00,000.00,019.7,019.0,000.0,028.0,021.0,9.7,0000.0,0008.54,0003.86,0003.42
2024-01-09 18:08:00,SystemResetWarning,0817.5,5.01,000.00,019.7,019.0,000.0,028.0,021.0,9.7,0000.0,0009.31,0003.90,0003.43
2024-01-09 18:09:00,SystemResetWarning,0817.5,5.00,000.00,019.7,019.0,000.0,028.0,021.0,9.7,0000.0,0009.80,0003.93,0003.45
2024-01-09 18:10:00,SystemResetWarning,0817.5,5.01,000.00,019.7,019.0,000.0,028.0,021.0,9.7,0000.0,0009.93,0003.94,0003.46
2024-01-09 18:11:00,SystemResetWarning,0817.5,5.00,000.00,019.7,019.1,000.0,028.0,021.0,9.6,0000.0,0009.89,0003.96,0003.46
2024-01-09 18:12:00,SystemResetWarning,0817.6,4.99,000.00,019.7,019.1,000.0,028.0,021.0,9.6,0000.0,0009.15,0003.99,0003.47
2024-01-09 18:13:00,SystemResetWarning,0817.6,5.00,000.00,019.7,019.1,000.0,028.0,021.0,9.6,0000.0,0009.18,0004.00,0003.47
2024-01-09 18:14:00,SystemResetWarning,0817.6,5.00,000.00,019.7,019.1,000.0,028.0,021.1,9.6,0000.0,0009.05,0004.02,0003.47
2024-01-09 18:15:00,SystemResetWarning,0817.6,5.00,000.00,019.7,019.1,000.0,028.0,021.1,9.5,0000.0,0008.96,0004.02,0003.47
2024-01-09 18:16:00,SystemResetWarning,0817.6,5.01,000.00,019.7,019.1,000.0,028.0,021.1,9.5,0000.0,0009.13,0004.01,0003.47
2024-01-09 18:17:00,SystemResetWarning,0817.5,5.00,000.00,019.7,019.1,000.0,028.0,021.1,9.5,0000.0,0009.41,0004.01,0003.47
2024-01-09 18:18:00,SystemResetWarning,0817.5,5.00,000.00,019.7,019.1,000.0,028.0,021.1,9.5,0000.0,0010.28,0004.02,0003.48
2024-01-09 18:19:00,SystemResetWarning,0817.5,5.00,000.00,019.7,019.1,000.0,028.0,021.1,9.5,0000.0,0010.41,0004.01,0003.45
2024-01-09 18:20:00,SystemResetWarning,0817.5,5.00,000.00,019.7,019.1,000.0,028.0,021.1,9.5,0000.0,0009.73,0003.97,0003.43
2024-01-09 18:21:00,SystemResetWarning,0817.5,5.00,000.00,019.7,019.1,000.0,028.0,021.1,9.6,0000.0,0009.43,0003.96,0003.41
2024-01-09 18:22:00,SystemResetWarning,0817.5,5.00,000.00,019.7,019.1,000.0,028.0,021.1,9.6,0000.0,0009.51,0003.94,0003.41
2024-01-09 18:23:00,SystemResetWarning,0817.6,5.00,000.00,019.8,019.1,000.0,028.1,021.2,9.6,0000.0,0009.65,0003.94,0003.40
2024-01-09 18:24:00,SystemResetWarning,0817.6,5.00,000.00,019.8,019.1,000.0,028.1,021.2,9.7,0000.0,0009.62,0003.91,0003.39
2024-01-09 18:25:00,SystemResetWarning,0817.6,5.00,000.00,019.8,019.1,000.0,028.1,021.2,9.8,0000.0,0009.54,0003.88,0003.38
2024-01-09 18:26:00,SystemResetWarning,0817.5,5.00,000.00,019.8,019.1,000.0,028.1,021.2,9.9,0000.0,0009.66,0003.90,0003.37
2024-01-09 18:27:00,SystemResetWarning,0817.5,5.01,000.00,019.8,019.1,000.0,028.1,021.2,10.0,0000.0,0009.71,0003.93,0003.37
2024-01-09 18:28:00,SystemResetWarning,0817.5,5.00,000.00,019.8,019.1,000.0,028.1,021.2,10.1,0000.0,0009.36,0003.95,0003.36
2024-01-09 18:29:00,SystemResetWarning,0817.4,5.00,000.00,019.8,019.2,000.0,028.1,021.2,10.2,0000.0,0008.71,0003.90,0003.32
2024-01-09 18:30:00,SystemResetWarning,0817.4,5.00,000.00,019.8,019.2,000.0,028.1,021.2,10.3,0000.0,0007.91,0003.90,0003.31
2024-01-09 18:31:00,SystemResetWarning,0817.4,5.01,000.00,019.8,019.2,000.0,028.1,021.2,10.3,0000.0,0007.86,0003.90,0003.31
2024-01-09 18:32:00,SystemResetWarning,0817.4,5.01,000.00,019.8,019.2,000.0,028.1,021.3,10.4,0000.0,0008.39,0003.88,0003.30
2024-01-09 18:33:00,SystemResetWarning,0817.5,4.99,000.00,019.9,019.2,000.0,028.1,021.3,10.5,0000.0,0008.65,0003.85,0003.28
2024-01-09 18:34:00,SystemResetWarning,0817.4,4.99,000.00,019.9,019.2,000.0,028.1,021.3,10.5,0000.0,0008.48,0003.82,0003.27
2024-01-09 18:35:00,SystemResetWarning,0817.4,5.00,000.00,019.9,019.2,000.0,028.1,021.3,10.4,0000.0,0008.65,0003.87,0003.27
2024-01-09 18:36:00,SystemResetWarning,0817.3,5.01,000.00,019.9,019.3,000.0,028.2,021.3,10.4,0000.0,0008.84,0003.88,0003.27
2024-01-09 18:37:00,SystemResetWarning,0817.2,5.00,000.00,019.9,019.3,000.0,028.2,021.3,10.4,0000.0,0009.05,0003.86,0003.25
2024-01-09 18:38:00,SystemResetWarning,0817.1,5.00,000.00,019.9,019.3,000.0,028.2,021.4,10.4,0000.0,0009.03,0003.81,0003.24
2024-01-09 18:39:00,SystemResetWarning,0817.1,5.01,000.00,019.9,019.3,000.0,028.2,021.4,10.4,0000.0,0009.99,0003.79,0003.22
2024-01-09 18:40:00,SystemResetWarning,0817.1,4.99,000.00,019.9,019.3,000.0,028.2,021.4,10.5,0000.0,0010.02,0003.79,0003.22
2024-01-09 18:41:00,SystemResetWarning,0817.1,5.00,000.00,020.0,019.3,000.0,028.2,021.4,10.5,0000.0,0010.18,0003.78,0003.21
2024-01-09 18:42:00,SystemResetWarning,0817.1,4.99,000.00,020.0,019.4,000.0,028.2,021.4,10.5,0000.0,0010.21,0003.77,0003.20
2024-01-09 18:43:00,SystemResetWarning,0817.0,5.00,000.00,020.0,019.4,000.0,028.2,021.4,10.6,0000.0,0009.77,0003.74,0003.19
2024-01-09 18:44:00,SystemResetWarning,0816.9,5.00,000.00,020.0,019.4,000.0,028.2,021.4,10.6,0000.0,0009.29,0003.73,0003.18
2024-01-09 18:45:00,SystemResetWarning,0816.9,5.00,000.00,020.0,019.4,000.0,028.2,021.4,10.6,0000.0,0009.53,0003.73,0003.17
2024-01-09 18:46:00,SystemResetWarning,0816.9,5.00,000.00,020.0,019.4,000.0,028.3,021.4,10.6,0000.0,0009.51,0003.68,0003.14
2024-01-09 18:47:00,SystemResetWarning,0816.9,5.00,000.00,020.0,019.4,000.0,028.3,021.4,10.6,0000.0,0009.24,0003.62,0003.09
2024-01-09 18:48:00,SystemResetWarning,0816.8,5.00,000.00,020.0,019.4,000.0,028.3,021.4,10.4,0000.0,0008.84,0003.61,0003.05
2024-01-09 18:49:00,SystemResetWarning,0816.7,5.01,000.00,020.0,019.4,000.0,028.3,021.4,10.2,0000.0,0008.68,0003.59,0003.00
2024-01-09 18:50:00,SystemResetWarning,0816.8,5.01,000.00,020.0,019.4,000.0,028.3,021.4,10.1,0000.0,0007.81,0003.60,0002.98
2024-01-09 18:51:00,SystemResetWarning,0816.9,5.01,000.00,020.0,019.4,000.0,028.3,021.4,10.0,0000.0,0007.76,0003.60,0002.93
2024-01-09 18:52:00,SystemResetWarning,0816.9,4.99,000.00,020.0,019.4,000.0,028.3,021.4,9.9,0000.0,0007.57,0003.59,0002.89
2024-01-09 18:53:00,SystemResetWarning,0816.8,5.00,000.00,020.0,019.4,000.0,028.3,021.4,9.8,0000.0,0007.55,0003.56,0002.83
2024-01-09 18:54:00,SystemResetWarning,0816.8,4.99,000.00,020.0,019.4,000.0,028.3,021.4,9.8,0000.0,0007.41,0003.51,0002.74
2024-01-09 18:55:00,SystemResetWarning,0816.8,4.99,000.00,020.1,019.4,000.0,028.3,021.4,9.8,0000.0,0007.27,0003.47,0002.68
2024-01-09 18:56:00,SystemResetWarning,0816.9,5.01,000.00,020.1,019.4,000.0,028.3,021.5,9.8,0000.0,0006.67,0003.39,0002.60
2024-01-09 18:57:00,SystemResetWarning,0816.8,5.01,000.00,020.1,019.4,000.0,028.3,021.5,9.7,0000.0,0006.62,0003.34,0002.55
2024-01-09 18:58:00,SystemResetWarning,0816.5,5.01,000.00,020.1,019.5,000.0,028.4,021.5,9.7,0000.0,0006.86,0003.33,0002.54
2024-01-09 18:59:00,SystemResetWarning,0816.5,5.00,000.00,020.1,019.5,000.0,028.4,021.5,9.8,0000.0,0006.85,0003.30,0002.53
